Weather in Donskoye

Russia / Kaliningrad Oblast     54°56′18″N   19°58′11″E
temp.,
°C
wind,
m/s
gust,
m/s
humid.,
%
clouds,
%
prec.,
mm/h
press.,
hPa
HPBL,
m
26 july, mon
mon2623:00+23ese686997 0.0 1015120
02:00+21se71275100 0.0 1015272
05:00+21se687296 0.0 1014178
08:00+22se687067 0.0 1015244
11:00+24ese686799 0.0 101597
14:00+25se4465100 0.0 101450
17:00+24se0174100 0.0 101317
20:00+23se71079100 0.7 1012183
27 july, tue
tue2723:00+21ese6884100 0.4 1012198
02:00+20se688748 0.6 1012308
05:00+19se569011 0.5 1011197
08:00+20sse339099 0.5 1010206
11:00+21sw2385100 0.0 1011194
14:00+21wsw468699 0.0 1011188
17:00+22wnw34815 0.1 1011113
20:00+22s11814 0.3 101113
28 july, wed
wed2823:00+22sw3380100 0.1 101241
02:00+21ssw55815 0.2 1012119
05:00+21ssw4482100 0.3 101191
08:00+22w5681100 0.4 1011189
11:00+21w458197 0.1 1012343
14:00+21w237895 0.1 1012222
17:00+22ne227190 0.0 101181
20:00+22nne2274100 0.0 101043
29 july, thu
thu2923:00+20wnw2281100 0.6 1010163
02:00+20w458220 0.9 1009376
05:00+21wsw57764 0.4 1009568
08:00+20wsw78775 0.6 1009582
11:00+20sw89815 0.1 1009596
14:00+21sw48705 0.3 1009434
17:00+21w3469100 0.0 1008253
20:00+21wnw6964100 0.1 10081026
30 july, fri
fri3023:00+21wsw7106615 0.2 10081199
02:00+20w811660 0.3 10071230
05:00+20wsw1113635 0.1 10071432
08:00+19wsw1214655 0.1 10071414
11:00+19wsw12145721 0.0 10071452
14:00+20w810595 0.0 10061329
17:00+20w910605 0.0 1006870
20:00+21w1214650 0.0 1005990